Flag for Switzerland Weather past 2 weeks in Arth, Schwyz, Switzerland

Now
57 °F

Cool.


Feels Like: 57 °F
Forecast: 36 / 43 °F
Wind: 1 mph from Southwest

Location: Altdorf

Current Time: May 25, 2015 at 8:22:29 PM

Latest Report: May 25, 2015 at 7:00 PM


Visibility: N/A

Pressure: 29.95 "Hg

Humidity: 86%

Dew point: 53 °F

Location of ArthLocation

Historic Weather in Arth — Graph

°F

Arth temperature yesterday

Maximum temperature yesterday: 64 °F (at 3:00 PM)
Minimum temperature yesterday: 49 °F (at 6:00 AM)
Average temperature yesterday: 56 °F

Past Weeks' High & Low Weather Summary

 TemperatureHumidityPressure
High79 °F (May 13, 5:00 PM)94% (May 25, 6:40 AM)30.34 "Hg (May 25, 6:40 AM)
Low42 °F (May 15, 5:00 PM)32% (May 14, 1:00 AM)29.72 "Hg (May 18, 6:00 PM)
Average57 °F74%30.07 "Hg
* Reported May 10 7:00 PM — May 25 7:00 PM, Arth, Weather by CustomWeather, © 2015

Note: Actual official high and low records may vary slightly from our data, if they occured in-between our weather recording intervals... More about our weather records

Advertising

Arth weather history for previous 24 hours

 ConditionsComfort  
Time TempWeatherWind HumidityBarometerVisibility
7:00 PM
Mon, May 25
57 °FCool.1 mph86%29.95 "HgN/A
6:00 PM59 °FCool.7 mph73%29.93 "HgN/A
5:00 PM61 °FLight rain. Overcast.15 mph62%29.92 "Hg9 mi
4:00 PM63 °FMild.3 mph57%29.91 "HgN/A
3:00 PM64 °FMild.5 mph65%29.91 "HgN/A
2:00 PM63 °FOvercast.2 mph63%29.94 "Hg12 mi
1:00 PM60 °FCool.2 mph70%29.97 "HgN/A
12:00 PM60 °FCool.2 mph75%29.99 "HgN/A
11:00 AM59 °FOvercast.1 mph75%30.00 "Hg12 mi
10:00 AM57 °FCool.1 mph84%30.01 "HgN/A
9:00 AM55 °FCool.2 mph88%30.03 "HgN/A
8:00 AM54 °FOvercast.1 mph93%30.03 "Hg11 mi
7:00 AM53 °FCool.2 mph91%30.03 "HgN/A
6:40 AM53 °FCool.1 mph94%30.04 "HgN/A
6:00 AM53 °FCool.1 mph90%30.03 "HgN/A
4:00 AM54 °FCool.1 mph89%30.03 "HgN/A
3:00 AM54 °FCool.1 mph87%30.04 "HgN/A
2:00 AM55 °FOvercast.1 mph86%30.05 "Hg9 mi
1:00 AM55 °FCool.2 mph87%30.05 "HgN/A
12:00 AM55 °FCool.1 mph87%30.05 "HgN/A
10:00 PM
Sun, May 24
56 °FCool.1 mph83%30.04 "HgN/A
9:00 PM57 °FCool.2 mph83%30.02 "HgN/A
8:00 PM59 °FOvercast.1 mph80%30.01 "Hg12 mi
Weather by CustomWeather, © 2015

See weather overviewHow to use our weather pages